Anchorage Merrill, AK

3:41 PM AKDT on May 27, 2017 (GMT -0800)
Merrill

Weather History for PAMR - August, 2014

Change the Weather History Date:

Friday, August 29, 2014

  Actual Average Record
Temperature  
Mean Temperature 57 °F -  
Max Temperature 63 °F 60 °F 73 °F (2016)
Min Temperature 52 °F 46 °F 39 °F (2015)
Degree Days  
Heating Degree Days 8    
Growing Degree Days 7 (Base 50)    
Moisture  
Dew Point 48 °F    
Average Humidity 76    
Maximum Humidity 89    
Minimum Humidity 53    
Precipitation  
Precipitation 0.19 in - - ()
Sea Level Pressure  
Sea Level Pressure 29.58 in    
Wind  
Wind Speed 2 mph (NW)    
Max Wind Speed 10 mph    
Max Gust Speed -    
Visibility 10 miles    
Events Rain    
Averages and records for this station are not official NWS values.
T = Trace of Precipitation, MM = Missing Value Source: NWS Daily Summary

Daily Weather History Graph

Daily Weather History Graph

Search for Another Location

Airport or City:

Trip Planner

Search our weather history database for the weather conditions in past years. The results will help you decide how hot, cold, wet, or windy it might be!

Date:

Astronomy

Aug. 29, 2014 Rise Set
Actual Time 6:44 AM AKDT 9:14 PM AKDT
Civil Twilight 5:55 AM AKDT 10:02 PM AKDT
Nautical Twilight 4:51 AM AKDT 11:06 PM AKDT
Astronomical Twilight 3:14 AM AKDT 12:38 AM AKDT
Moon 12:00 PM AKDT (8/29) 9:55 PM AKDT (8/29)
Length of Visible Light 16h 06m
Length of Day
14h 30m
Waxing Crescent, 16% of the Moon is Illuminated
Aug 29
Waxing Crescent
Sep 2
First Quarter
Sep 8
Full
Sep 15
Last Quarter
Sep 23
New

Hourly Weather History & Observations

Time (AKDT) Temp. Dew Point Humidity Pressure Visibility Wind Dir Wind Speed Gust Speed Precip Events Conditions
12:53 AM 53.1 °F 50.0 °F 89% 29.61 in 10.0 mi Calm Calm - 0.04 in Rain Light Rain
1:38 AM 53.1 °F 50.0 °F 89% 29.61 in 10.0 mi Calm Calm - 0.04 in Rain Light Rain
1:53 AM 53.1 °F 50.0 °F 89% 29.61 in 10.0 mi ENE 3.5 mph - 0.05 in Rain Light Rain
2:53 AM 53.1 °F 50.0 °F 89% 29.60 in 10.0 mi NNE 3.5 mph - 0.05 in Rain Light Rain
3:53 AM 53.1 °F 50.0 °F 89% 29.60 in 10.0 mi ENE 3.5 mph - 0.03 in Rain Light Rain
4:53 AM 53.1 °F 48.9 °F 86% 29.60 in 10.0 mi Calm Calm - 0.01 in Rain Light Rain
5:53 AM 52.0 °F 48.9 °F 89% 29.60 in 10.0 mi Calm Calm - 0.00 in   Overcast
7:53 AM 53.1 °F 48.9 °F 86% 29.59 in 10.0 mi Calm Calm - 0.01 in   Mostly Cloudy
8:53 AM 53.1 °F 48.9 °F 86% 29.59 in 10.0 mi Calm Calm - N/A   Mostly Cloudy
9:53 AM 55.0 °F 48.9 °F 80% 29.58 in 10.0 mi Calm Calm - N/A   Scattered Clouds
10:53 AM 55.0 °F 48.9 °F 80% 29.58 in 10.0 mi NNW 4.6 mph - N/A   Scattered Clouds
11:53 AM 55.9 °F 48.0 °F 75% 29.57 in 10.0 mi NW 5.8 mph - N/A   Scattered Clouds
12:53 PM 59.0 °F 46.9 °F 64% 29.58 in 10.0 mi Calm Calm - N/A   Scattered Clouds
1:53 PM 59.0 °F 48.0 °F 67% 29.57 in 10.0 mi WNW 6.9 mph - N/A   Scattered Clouds
2:53 PM 59.0 °F 48.0 °F 67% 29.57 in 10.0 mi WNW 8.1 mph - N/A   Scattered Clouds
3:53 PM 61.0 °F 46.9 °F 60% 29.56 in 10.0 mi WNW 5.8 mph - N/A   Clear
4:53 PM 62.1 °F 45.0 °F 53% 29.55 in 10.0 mi Variable 5.8 mph - N/A   Clear
5:53 PM 60.1 °F 48.0 °F 64% 29.55 in 10.0 mi West 10.4 mph - N/A   Clear
6:53 PM 59.0 °F 46.0 °F 62% 29.56 in 10.0 mi West 8.1 mph - N/A   Clear
7:53 PM 59.0 °F 44.1 °F 58% 29.56 in 10.0 mi West 6.9 mph - N/A   Clear
8:53 PM 57.9 °F 46.9 °F 67% 29.56 in 10.0 mi WNW 5.8 mph - N/A   Mostly Cloudy
9:53 PM 55.9 °F 46.9 °F 72% 29.56 in 10.0 mi Calm Calm - N/A   Overcast
10:53 PM 54.0 °F 46.9 °F 77% 29.57 in 10.0 mi Calm Calm - N/A   Clear
11:53 PM 54.0 °F 46.9 °F 77% 29.59 in 10.0 mi Calm Calm - N/A   Mostly Cloudy